Probability
0 0 0 0 0 0 0 1 0 0 0 0 0 0 0 0 0 0 1 2 3 3 3 3 4 5 6 6 6 6 7 6 5 4 4 3 3 3 3 4 6 6 6
0 0 0 0 0 0 0 1 0 0 0 0 0 0 0 0 0 0 0 1 2 3 3 3 3 4 4 5 6 7 7 7 6 5 4 4 3 3 3 4 5 6 6
0 0 0 0 0 0 0 0 0 0 0 0 0 0 1 0 0 0 0 0 1 2 3 3 3 2 3 3 5 6 7 7 6 6 6 5 4 3 3 3 4 5 6
0 0 0 0 0 1 1 1 1 1 1 0 0 0 0 0 0 0 0 0 0 1 2 3 2 1 1 1 3 5 6 5 5 5 5 4 3 3 3 3 4 5 6
0 0 0 0 1 2 2 2 2 2 2 1 1 0 0 0 0 0 0 0 0 0 0 1 1 1 0 1 2 3 3 3 3 3 4 3 3 3 4 4 5 6 7
1 1 1 1 1 3 3 3 3 3 3 3 2 1 0 0 0 0 0 0 0 0 0 0 0 1 1 2 2 3 3 2 2 2 3 4 4 4 5 5 5 5 6
2 2 2 2 3 3 3 3 3 3 3 3 3 2 1 0 0 0 0 0 0 0 0 0 0 0 1 2 3 3 5 4 3 3 3 4 4 4 4 4 4 3 4
3 3 3 2 3 3 3 3 3 3 3 3 3 3 1 1 0 0 0 0 0 0 0 0 0 0 1 2 2 4 5 4 3 4 4 4 3 3 2 2 1 2 2
2 2 1 1 1 2 2 1 2 2 3 3 3 3 3 3 2 1 0 0 0 0 0 0 0 0 1 2 2 3 4 3 2 4 6 5 4 3 2 1 0 1 1
1 1 0 0 0 1 1 1 1 2 3 4 4 4 4 5 5 3 2 1 0 0 0 0 0 1 1 2 2 2 3 3 3 4 6 7 8 7 4 2 1 1 1
0 0 0 0 0 0 0 0 0 1 3 4 5 5 6 6 6 6 5 4 2 0 0 0 0 1 2 3 2 2 3 3 3 3 4 5 8 8 6 4 3 2 1
0 0 0 1 0 0 0 0 0 1 3 4 4 5 6 6 6 6 6 6 3 1 0 0 0 1 3 3 3 2 2 2 2 2 2 2 3 5 6 5 4 2 1
0 0 1 1 2 2 2 1 1 2 3 3 3 4 4 5 6 6 6 6 5 3 1 0 0 1 2 3 3 2 2 1 1 1 1 0 0 2 4 5 4 2 1
0 1 2 3 4 4 4 3 3 3 3 3 3 3 3 4 6 7 7 7 7 6 4 1 0 1 2 3 3 3 3 2 1 0 0 0 0 0 1 2 2 2 1
2 3 4 4 4 4 3 3 2 2 3 3 3 3 3 4 6 7 8 9 9 8 7 4 2 2 3 3 3 3 3 2 1 0 0 0 0 0 0 0 1 1 0
4 5 5 4 3 2 2 1 1 1 1 2 3 3 4 5 6 7 8 10 12 11 10 7 5 4 4 3 3 3 3 3 1 1 1 0 0 0 0 0 0 0 0
7 6 5 4 3 3 2 1 0 0 0 1 1 3 5 6 6 6 7 9 11 11 10 8 7 5 4 3 3 3 3 2 2 2 1 0 0 0 0 0 0 0 0
8 8 7 5 4 5 6 4 2 1 1 0 0 2 4 5 5 6 6 7 7 8 7 6 6 5 3 2 2 2 2 1 1 1 1 0 0 0 0 0 0 0 0
8 9 9 8 7 8 8 7 5 5 3 1 2 3 4 4 5 6 6 5 5 5 5 4 4 5 3 1 1 1 1 0 0 0 0 0 0 0 0 0 0 0 0
10 10 11 11 11 10 9 7 7 8 6 4 5 5 5 4 4 6 7 6 5 4 4 3 4 5 4 1 0 0 1 0 0 0 0 0 0 0 0 0 0 0 0
12 12 13 14 13 10 7 6 7 9 8 7 6 6 6 5 4 5 6 6 5 4 3 3 3 4 3 1 0 0 0 0 0 0 0 0 0 0 0 0 0 0 0
12 13 14 14 14 11 6 4 6 8 9 9 8 7 7 6 5 5 5 5 4 3 3 3 3 3 2 0 0 0 0 0 0 0 0 0 0 0 0 0 0 0 0
11 11 12 13 13 10 6 3 4 7 9 9 9 8 8 7 6 6 5 3 2 2 2 3 3 3 2 1 0 0 0 0 0 0 0 0 0 0 0 0 0 0 0
11 11 11 12 12 9 5 3 4 6 8 9 10 9 9 8 7 6 5 4 3 3 2 2 2 2 2 1 0 0 0 0 0 0 0 1 0 0 0 0 0 0 0
11 11 11 11 10 8 4 2 3 6 9 10 11 10 10 9 7 5 5 6 6 5 3 1 1 1 1 1 0 0 0 0 0 0 0 1 1 0 1 1 1 0 0
10 11 11 11 10 7 4 1 2 7 10 11 12 11 9 9 7 4 4 6 6 5 3 2 1 0 0 0 0 0 0 0 0 0 0 1 1 1 2 2 2 1 0
Wind_Speed
3 3 3 3 3 3 3 3 3 3 3 3 3 3 2 2 2 2 1 4 4 5 5 5 5 6 6 6 6 6 6 6 6 6 6 6 6 6 6 6 6 5 5
2 2 3 2 2 2 2 2 2 2 2 2 2 2 2 2 2 2 1 1 3 4 4 5 5 6 6 6 7 7 7 7 7 7 7 7 6 6 6 6 6 5 5
2 2 2 2 2 2 3 2 3 2 2 2 2 2 2 1 2 1 1 0 1 2 3 4 4 5 5 6 7 7 8 7 7 7 8 8 7 6 6 6 6 6 5
2 2 2 2 2 2 2 2 2 2 2 2 1 1 1 1 1 1 1 1 1 1 2 4 4 4 4 5 5 7 8 8 8 7 7 8 8 7 7 6 6 6 6
2 3 2 2 2 2 2 2 2 2 2 2 1 1 1 1 0 1 1 2 2 1 1 2 4 5 6 6 6 6 7 7 7 7 7 8 8 8 8 7 7 6 6
3 3 2 2 2 2 2 2 2 2 2 1 1 2 1 1 0 0 1 1 1 2 2 2 2 3 5 5 5 5 6 6 6 7 7 7 8 7 8 8 8 7 7
2 2 2 2 2 2 2 2 2 2 1 1 2 2 2 1 1 0 1 1 1 2 1 2 2 2 2 4 4 5 5 5 5 6 7 7 7 7 7 8 8 7 7
2 2 2 2 2 2 2 2 2 1 1 1 1 1 2 3 2 1 0 1 1 1 1 2 2 2 2 2 2 4 4 4 5 5 6 6 5 5 6 7 7 7 7
1 2 2 2 1 2 1 1 1 2 1 0 1 2 1 1 2 2 1 1 1 1 1 1 1 2 2 2 2 3 3 3 4 5 5 5 5 4 4 4 5 5 5
1 1 1 1 1 1 1 1 1 1 1 1 0 0 1 2 1 1 2 1 2 2 2 2 2 2 2 2 2 2 3 3 3 4 4 4 4 4 4 5 5 5 5
2 2 1 1 1 1 1 1 1 1 1 1 1 1 1 1 1 1 1 2 2 2 1 2 2 2 1 2 2 2 2 2 2 3 3 3 3 4 5 5 5 5 5
2 2 1 1 1 0 0 1 1 1 1 1 1 1 1 1 2 2 1 1 2 2 2 1 1 1 1 2 2 2 2 2 2 2 2 2 2 3 3 4 4 4 5
1 1 1 1 1 0 0 1 1 1 1 1 1 1 1 1 1 2 2 1 1 2 2 1 1 1 1 1 2 3 3 3 3 3 3 2 2 2 2 3 3 3 3
1 0 0 1 1 1 1 1 1 0 1 1 1 1 1 1 1 2 2 2 1 1 1 2 1 1 2 1 2 3 2 3 3 3 3 3 3 2 2 2 2 2 2
0 0 0 1 1 1 1 1 1 1 1 1 0 1 0 0 0 1 1 2 2 1 2 2 1 2 2 1 2 2 2 3 3 3 3 3 3 2 2 2 2 2 1
1 1 1 1 2 2 2 2 1 1 2 1 1 2 1 1 1 1 1 1 1 2 2 1 1 2 3 2 3 2 2 3 2 2 2 2 2 2 2 2 2 2 2
1 0 0 1 1 1 1 1 1 2 2 2 2 2 1 1 1 1 1 1 0 1 2 2 1 2 2 3 3 3 2 2 2 3 2 2 2 2 2 2 2 3 3
0 0 0 1 0 0 1 1 1 1 1 1 1 1 1 1 1 1 1 0 0 0 1 2 2 1 2 2 3 3 3 2 2 3 3 3 2 1 1 1 1 2 2
1 1 0 0 0 0 0 1 1 1 1 1 1 1 0 1 1 0 0 0 0 0 0 1 1 1 1 2 2 3 3 2 3 3 3 2 3 2 1 1 1 1 2
1 0 0 0 1 1 0 1 2 1 1 1 1 1 1 1 1 1 1 0 0 0 0 0 1 1 1 2 1 2 2 3 3 3 3 3 3 3 2 1 0 0 1
1 0 0 1 1 0 0 1 1 1 1 0 0 1 1 1 2 2 1 1 1 1 1 1 1 1 1 1 1 1 2 3 2 2 2 2 2 2 2 1 0 0 0
0 1 0 0 1 1 1 1 2 1 1 1 1 2 2 1 1 2 2 2 2 2 2 2 1 2 2 2 1 1 1 2 2 1 2 2 1 2 2 1 1 1 1
1 0 0 0 1 2 1 1 2 1 1 1 1 1 1 1 1 1 2 2 2 2 3 3 3 3 3 2 2 2 2 2 3 2 2 2 2 2 2 1 1 1 1
1 1 1 1 1 2 2 2 1 1 1 1 2 2 2 2 1 1 1 1 1 1 2 2 3 3 3 2 2 2 2 2 2 2 2 2 2 2 2 1 1 1 2
2 1 2 2 1 3 3 2 1 1 1 1 2 2 2 2 2 2 1 1 1 2 1 1 2 2 2 2 1 1 0 1 2 2 1 2 2 2 2 2 1 2 2
2 2 1 2 2 2 3 2 2 1 1 2 1 1 2 2 2 3 3 2 2 2 1 1 2 2 2 1 2 2 2 1 1 2 1 1 1 2 1 1 1 1 1
Wind_Direction
64 64 65 63 62 70 79 80 74 64 65 69 82 97 102 111 129 132 153 180 183 188 192 196 194 195 196 195 197 200 201 204 205 202 201 201 201 204 206 208 211 210 210
76 78 75 70 69 73 81 87 89 78 63 68 73 82 95 114 121 132 146 184 182 188 202 209 212 214 215 214 213 216 218 217 215 213 212 212 214 216 220 220 220 217 213
87 90 85 82 82 85 91 93 88 85 88 80 75 74 87 112 135 148 156 158 207 205 207 211 220 229 233 231 227 225 225 227 222 220 219 216 218 223 229 227 223 221 219
88 91 87 83 88 85 88 95 90 86 79 76 61 48 73 99 150 165 168 180 203 227 234 235 238 246 254 254 250 242 237 234 228 223 218 219 222 221 226 232 232 230 226
78 88 84 73 81 84 83 98 85 97 94 80 73 49 47 56 136 197 197 209 213 222 242 260 254 255 260 260 261 258 249 239 231 225 225 223 222 219 221 227 232 232 229
68 81 79 64 72 80 72 81 87 76 88 96 82 47 23 16 49 210 229 226 221 225 229 246 258 265 265 267 266 269 263 248 235 231 229 229 229 225 221 223 224 227 229
69 81 79 68 71 82 90 100 101 90 79 95 83 42 17 29 48 280 230 231 241 241 237 243 255 255 268 273 273 267 269 266 248 242 237 232 233 230 227 228 224 221 225
66 88 90 86 84 89 83 85 110 113 88 81 108 84 14 356 356 6 335 243 263 259 252 248 244 244 256 263 276 268 270 269 255 244 237 229 225 227 232 234 227 221 224
61 78 92 94 91 103 112 118 137 145 163 48 103 141 143 236 320 341 1 2 339 308 287 288 267 254 252 255 262 271 265 271 271 255 247 231 217 215 222 230 231 227 224
47 67 84 98 108 114 131 173 136 150 153 198 154 132 180 173 173 317 337 354 350 340 321 307 303 289 272 265 265 258 268 273 270 269 264 250 228 221 220 227 232 230 226
24 41 67 91 104 112 142 135 118 139 154 172 186 173 148 122 159 177 289 332 349 339 326 310 306 305 297 275 266 272 279 278 276 276 271 261 244 231 232 234 236 238 235
8 15 39 48 88 124 173 167 149 156 158 158 175 171 169 171 174 168 204 282 317 319 327 334 331 322 315 307 297 317 289 273 277 283 286 288 276 258 246 250 242 241 244
344 340 6 24 31 171 185 137 124 132 142 157 179 180 181 200 175 161 162 210 285 307 327 342 332 330 329 330 319 336 318 305 291 288 293 294 288 282 262 261 249 242 248
260 323 37 23 20 44 104 111 99 108 111 156 179 159 162 204 170 164 167 165 247 310 319 306 329 345 332 316 329 336 327 327 309 292 281 276 279 275 258 239 244 240 238
259 73 67 45 31 38 64 86 70 45 68 66 70 79 76 37 138 163 170 176 175 234 282 289 308 338 331 311 340 336 317 326 312 292 282 275 268 253 238 218 206 214 210
26 51 43 42 38 37 55 75 67 54 67 50 70 76 56 36 60 87 136 151 179 191 246 275 280 318 327 344 6 345 334 341 330 319 314 302 278 256 242 221 203 197 193
62 55 81 55 31 16 45 78 78 80 85 64 59 80 58 50 68 67 87 102 117 175 229 286 299 333 337 344 345 345 340 330 330 342 344 332 318 282 255 225 215 212 211
69 191 158 133 203 162 70 100 104 96 114 109 93 90 57 74 68 69 106 120 216 231 211 272 303 332 329 331 335 339 351 346 334 348 340 337 332 325 298 203 210 217 219
78 52 71 177 254 240 159 138 133 136 148 152 140 136 151 116 85 72 100 103 257 310 208 236 287 312 316 332 339 344 348 342 342 352 352 354 340 343 329 278 234 232 232
133 158 251 300 299 299 196 163 155 159 153 153 171 189 188 173 196 207 173 189 170 117 127 192 266 310 312 330 340 338 338 341 335 340 349 351 355 356 346 336 310 236 240
191 190 56 345 314 320 274 151 164 164 173 197 287 261 214 196 204 211 204 200 180 177 175 187 235 290 299 309 313 310 313 321 309 321 328 339 344 343 336 316 273 203 163
46 71 76 282 310 315 6 140 152 177 189 210 255 275 259 264 267 262 253 232 203 196 195 197 229 258 273 277 284 284 294 309 301 325 318 312 324 314 314 316 318 205 199
177 125 305 288 289 300 317 247 197 178 206 227 242 259 270 284 243 256 286 292 266 234 196 194 216 243 250 245 243 267 260 262 270 298 295 294 305 301 303 325 312 264 235
189 205 236 244 278 301 297 270 226 177 237 248 247 238 235 258 250 218 249 312 295 271 238 218 227 243 249 234 224 244 254 270 284 283 262 275 295 298 313 307 292 246 242
203 218 230 231 246 286 293 267 204 192 242 274 270 255 231 243 250 184 168 232 290 299 287 264 263 274 276 255 203 148 201 268 288 291 257 258 282 298 300 293 278 241 242
211 221 246 248 241 260 279 271 227 211 230 257 270 264 248 245 241 191 184 197 238 264 282 314 322 322 308 274 217 210 210 233 275 276 248 256 291 310 294 293 314 307 273